This demonstration page uses our WeatherBlox Daily Observations layout. Learn more.

Left ArrowRight Arrow

31.84235, -102.49876

Hourly Observations for March 25, 2015

Temp ( °F °C ) Dew Point ( °F °C ) Humidity (%) Winds ( mph kmh ) Pressure ( in mb ) Visibility ( mi km ) Precip ( " mm )
12:53 am 00:53 Clear 62 16.7 47 8.3 58 58 S 10 17 29.82 1010 10 16 0.00 0.00
1:53 am 01:53 Clear 65 18.3 51 10.6 61 61 S 16 26 29.80 1009 10 16 0.00 0.00
2:53 am 02:53 Clear 63 17.2 53 11.7 70 70 SSW 10 17 29.79 1009 10 16 0.00 0.00
3:53 am 03:53 Clear 63 17.2 53 11.7 70 70 SSW 12 19 29.78 1008 10 16 0.00 0.00
4:53 am 04:53 Clear 62 16.7 53 11.7 73 73 SSW 12 19 29.76 1008 10 16 0.00 0.00
5:53 am 05:53 Clear 60 15.6 53 11.7 78 78 SSW 9 15 29.77 1008 10 16 0.00 0.00
6:53 am 06:53 Clear 60 15.6 53 11.7 78 78 SSW 12 19 29.78 1008 10 16 0.00 0.00
9:53 am 09:53 Sunny 66 18.9 49 9.4 54 54 SW 12 19 29.83 1010 10 16 0.00 0.00
10:53 am 10:53 Sunny 69 20.6 38 3.3 32 32 WSW 13 20 29.83 1010 10 16 0.00 0.00
11:53 am 11:53 Sunny 73 22.8 38 3.3 28 28 WSW 10 17 29.83 1010 10 16 0.00 0.00
12:53 pm 12:53 Sunny 77 25 37 2.8 24 24 WSW 13 20 29.82 1010 10 16 0.00 0.00
1:53 pm 13:53 Sunny 81 27.2 31 -0.6 16 16 W 16 26 29.79 1009 10 16 0.00 0.00
2:53 pm 14:53 Sunny 83 28.3 24 -4.4 11 11 W 18 30 29.76 1008 10 16 0.00 0.00
3:53 pm 15:53 Sunny 83 28.3 24 -4.4 11 11 W 18 30 29.73 1007 10 16 0.00 0.00
4:53 pm 16:53 Sunny 82 27.8 21 -6.1 10 10 W 22 35 29.73 1007 10 16 0.00 0.00
5:53 pm 17:53 Sunny 80 26.7 25 -3.9 13 13 W 22 35 29.74 1007 10 16 0.00 0.00
6:53 pm 18:53 Sunny 76 24.4 28 -2.2 17 17 W 13 20 29.75 1007 10 16 0.00 0.00
7:53 pm 19:53 Sunny 72 22.2 29 -1.7 20 20 W 9 15 29.77 1008 10 16 0.00 0.00
8:53 pm 20:53 Clear 68 20 33 0.6 27 27 W 9 15 29.80 1009 10 16 0.00 0.00
9:53 pm 21:53 undefined 68 20 32 0 26 26 W 9 15 29.82 1010 10 16 0.00 0.00
10:53 pm 22:53 Hazy 65 18.3 36 2.2 34 34 N 25 41 29.90 1012 6 10 0.00 0.00
11:00 pm 23:00 Mostly Cloudy with Haze 64 17.8 36 2.2 35 35 N 22 35 29.91 1013 6 10 0.00 0.00
11:13 pm 23:13 Cloudy with Haze 61 16.1 35 1.7 38 38 N 32 52 29.97 1015 4 6 0.00 0.00
11:53 pm 23:53 Cloudy with Haze 56 13.3 35 1.7 46 46 NNE 36 57 29.96 1015 5 8 0.00 0.00

Powered by AerisWeather